sat.trackr.live / text

‹ back to catalog

ONEWEB-0114

NORAD 47262 · 2020-100E

PAYLOAD ACTIVE UNKNOWN

§ Identity

Operator
Country
UK
Launch date
2020-12-18
Launch site
VOSTO
Launch vehicle
Mass (kg)
RCS (m²)

Purposes: comms

External: N2YO · Heavens-Above · Gunter

§ Orbital elements

Epoch: 2026-05-25T03:08:09.666816Z

Period
109.72 min
Inclination
87.8963°
Eccentricity
0.0001718
Mean motion
13.12441648 rev/d
Perigee alt
1,212.4 km
Apogee alt
1,215.0 km
Semi-major
7,591.9 km
B*
-1.3113e-4
RAAN
355.2436°
Arg perigee
94.4643°
Mean anomaly
265.6682°
Rev number
26,149

§ Raw data

ONEWEB-01141 47262U 20100E   26145.13066744 -.00000034  00000+0 -13113-3 0  99932 47262  87.8963 355.2436 0001718  94.4643 265.6682 13.12441648261490

JSON: /api/v1/satellites/47262 · /tle

For live sub-satellite position, see the globe view (requires WebGL).

§ Visibility from observer

Set your observer location to see the next 7 days of passes ≥ 10°. The values pass through the URL so the page stays shareable.

No JS? Fill the form by hand. The geolocation button needs JavaScript.